, FL

(GMT )
Crestview

Weather History for KEGI - October, 2012

Change the Weather History Date:

Tuesday, October 16, 2012

  Actual Average Record
Temperature  
Mean Temperature 61 °F -  
Max Temperature 77 °F - - ()
Min Temperature 45 °F - - ()
Degree Days  
Heating Degree Days 4    
Growing Degree Days 11 (Base 50)    
Moisture  
Dew Point 47 °F    
Average Humidity 64    
Maximum Humidity 93    
Minimum Humidity 25    
Precipitation  
Precipitation 0.00 in - - ()
Sea Level Pressure  
Sea Level Pressure 29.94 in    
Wind  
Wind Speed 4 mph (NNE)    
Max Wind Speed 12 mph    
Max Gust Speed -    
Visibility 10 miles    
Events      
Averages and records for this station are not official NWS values.
T = Trace of Precipitation, MM = Missing Value Source: NWS Daily Summary

Daily Weather History Graph

Daily Weather History Graph

Search for Another Location

Airport or City:

Trip Planner

Search our weather history database for the weather conditions in past years. The results will help you decide how hot, cold, wet, or windy it might be!

Date:

Astronomy

Oct. 16, 2012 Rise Set
Actual Time 6:49 AM CDT 6:13 PM CDT
Civil Twilight 6:25 AM CDT 6:37 PM CDT
Nautical Twilight 5:57 AM CDT 7:05 PM CDT
Astronomical Twilight 5:29 AM CDT 7:33 PM CDT
Moon 8:03 AM CDT (10/16) 7:07 PM CDT (10/16)
Length of Visible Light 12h 12m
Length of Day
11h 23m
New Moon, 2% of the Moon is Illuminated
Oct 16
New Moon
Oct 21
First Quarter
Oct 29
Full
Nov 6
Last Quarter
Nov 13
New

Hourly Weather History & Observations

Time (CDT) Temp. Dew Point Humidity Pressure Visibility Wind Dir Wind Speed Gust Speed Precip Events Conditions
12:55 AM 58.6 °F 52.3 °F 80% 29.96 in 10.0 mi NNW 3.5 mph - N/A   Clear
1:55 AM 54.5 °F 51.1 °F 88% 29.96 in 10.0 mi Calm Calm - N/A   Clear
2:55 AM 54.1 °F 48.7 °F 82% 29.95 in 10.0 mi North 4.6 mph - N/A   Clear
3:55 AM 51.6 °F 47.5 °F 86% 29.95 in 10.0 mi Calm Calm - N/A   Clear
4:55 AM 49.5 °F 46.0 °F 88% 29.96 in 10.0 mi North 4.6 mph - N/A   Clear
5:55 AM 47.3 °F 45.3 °F 93% 29.97 in 10.0 mi Calm Calm - N/A   Clear
6:55 AM 45.7 °F 43.3 °F 92% 29.97 in 10.0 mi Calm Calm - N/A   Clear
7:55 AM 51.4 °F 48.4 °F 89% 29.99 in 10.0 mi Calm Calm - N/A   Clear
8:55 AM 59.9 °F 48.2 °F 65% 30.00 in 10.0 mi NNE 6.9 mph - N/A   Partly Cloudy
9:55 AM 67.6 °F 48.0 °F 49% 30.00 in 10.0 mi ENE 5.8 mph - N/A   Scattered Clouds
10:55 AM 72.1 °F 45.7 °F 39% 29.99 in 10.0 mi NNE 11.5 mph - N/A   Mostly Cloudy
11:55 AM 74.7 °F 45.1 °F 35% 29.98 in 10.0 mi NE 10.4 mph - N/A   Mostly Cloudy
12:55 PM 75.4 °F 42.3 °F 30% 29.94 in 10.0 mi North 10.4 mph - N/A   Mostly Cloudy
1:55 PM 75.6 °F 44.2 °F 33% 29.93 in 10.0 mi NNE 8.1 mph - N/A   Mostly Cloudy
2:55 PM 77.5 °F 39.7 °F 26% 29.92 in 10.0 mi NNW 8.1 mph - N/A   Mostly Cloudy
3:55 PM 75.4 °F 37.4 °F 25% 29.90 in 10.0 mi North 6.9 mph - N/A   Mostly Cloudy
4:55 PM 73.0 °F 42.8 °F 34% 29.89 in 10.0 mi NNE 4.6 mph - N/A   Mostly Cloudy
5:55 PM 68.2 °F 49.5 °F 51% 29.88 in 10.0 mi Calm Calm - N/A   Mostly Cloudy
6:55 PM 63.7 °F 51.6 °F 65% 29.89 in 10.0 mi North 3.5 mph - N/A   Mostly Cloudy
7:55 PM 62.1 °F 51.3 °F 68% 29.89 in 10.0 mi Calm Calm - N/A   Overcast
8:55 PM 60.4 °F 52.2 °F 74% 29.90 in 10.0 mi North 3.5 mph - N/A   Overcast
9:55 PM 59.0 °F 51.1 °F 75% 29.91 in 10.0 mi Calm Calm - N/A   Overcast
10:55 PM 58.1 °F 51.6 °F 79% 29.91 in 10.0 mi Calm Calm - N/A   Overcast
11:55 PM 57.7 °F 51.3 °F 79% 29.91 in 10.0 mi Calm Calm - N/A   Overcast